User: anonymous   Login
Location: Star Hoppers Observatory
(42.7905°N, 83.6127°W)
Time: 17:24:19
(UTC-04:00)
Language:

NOSS 3-1 (A) - Orbit

View from above orbital plane
View from above orbital plane
View from above satellite
View from above satellite

Ground track
Ground track

The orbit data is extracted from the following two-line orbital elements,

1 26905U 01040A   17228.05477586 0.00000000  00000-0  00000-0 0    02
2 26905  63.4100 240.7585 0375000 358.5386   1.4614 13.40749157    09
Epoch (UTC): 16 August 2017 01:18:52
Eccentricity: 0.0375000
inclination: 63.4100°
perigee height: 826 km
apogee height: 1387 km
right ascension of ascending node: 240.7585°
argument of perigee: 358.5386°
revolutions per day: 13.40749157
mean anomaly at epoch: 1.4614°
orbit number at epoch: 0

The dashed part of the orbit path shows where the satellite is in the earth's shadow,  

DLR